Find STARLINK-37566

NORAD ID: 70573 Constellation: starlink operational
LEOCIRCULARRETROGRADE

リアルタイム位置

3D地球を読み込み中...

STARLINK-37566について

説明を読み込み中...

次回通過

Passes for default location (London). Set your location on the main map for personalized predictions.

高度履歴

Loading altitude history...

軌道要素

1 70573C 26097P 26121.86576389 -.00523900 00000+0 -75999-3 0 1219
2 70573 97.2855 316.5251 0008397 256.7786 265.7640 16.05471274 19
Epoch: May 1, 2026 • Age: 29 hours